Location: Marseilles
(40.7010°N, 83.3930°W)
Time: 09:59:14
(UTC-05:00)

Cosmos 1459 Rocket - Visible Passes

Search period start: 02 March 2015 00:00
Search period end: 12 March 2015 01:00
Orbit: 937 x 1001 km, 83.0° (Epoch: 02 March)

Date Brightness Start Highest point End Pass type
(mag) Time Alt. Az. Time Alt. Az. Time Alt. Az.
05 Mar 6.3 21:58:00 10° N 21:58:37 13° N 21:58:37 13° N visible
06 Mar 6.3 22:21:18 10° N 22:22:14 15° N 22:22:14 15° N visible
07 Mar 6.1 21:00:41 10° NNE 21:01:20 12° NNE 21:01:20 12° NNE visible
07 Mar 6.4 22:44:53 10° NNW 22:45:53 15° NNW 22:45:53 15° NNW visible
08 Mar 5.8 22:23:25 10° N 22:25:00 18° NNE 22:25:00 18° NNE visible
09 Mar 6.6 00:08:49 10° NNW 00:09:33 13° NNW 00:09:33 13° NNW visible
09 Mar 5.7 22:46:34 10° N 22:48:41 23° N 22:48:41 23° N visible
10 Mar 5.8 21:26:32 10° NNE 21:27:50 13° NE 21:27:50 13° NE visible
10 Mar 5.7 23:10:02 10° N 23:12:24 25° NNW 23:12:24 25° NNW visible
11 Mar 5.4 21:48:55 10° NNE 21:51:35 22° NE 21:51:35 22° NE visible
11 Mar 5.9 23:33:47 10° NNW 23:36:08 23° NW 23:36:08 23° NW visible
